Home > Weather > Jamestown > Past weeks

Flag for Saint Helena Weather for the Past 2 Weeks in Jamestown, Saint Helena

Now
72 °F

Partly sunny.


Feels Like: 71 °F
Forecast: 75 / 78 °F
Wind: 15 mph from Southeast

Location: Saint Helena Island

Current Time: Feb 8, 2016 at 12:40:31 PM

Latest Report: Feb 8, 2016 at 12:00 PM


Visibility: 16 mi

Pressure: 30.09 "Hg

Humidity: 86%

Dew point: 68 °F

Location of JamestownLocation

Historic Weather in Jamestown — Graph

°F

Jamestown Temperature Yesterday

Maximum temperature yesterday: 75 °F (at 2:00 PM)
Minimum temperature yesterday: 68 °F (at 5:00 AM)
Average temperature yesterday: 71 °F

High & Low Weather Summary for the Past Weeks

 TemperatureHumidityPressure
High77 °F (Jan 28, 1:00 PM)100% (Jan 25, 3:00 PM)30.12 "Hg (Jan 25, 3:00 PM)
Low65 °F (Jan 25, 5:00 AM)56% (Jan 28, 1:00 PM)29.91 "Hg (Feb 1, 4:00 PM)
Average70 °F88%30.02 "Hg
* Reported Jan 24 11:00 AM — Feb 8 11:00 AM, Jamestown, Weather by CustomWeather, © 2016

Note: Actual official high and low records may vary slightly from our data, if they occured in-between our weather recording intervals... More about our weather records

Advertising

Jamestown Weather History for the Previous 24 Hours

 ConditionsComfort  
Time TempWeatherWind HumidityBarometerVisibility
11:00 AM
Mon, Feb 8
73 °FOvercast.16 mph86%30.10 "Hg28 mi
10:00 AM71 °FLow clouds.16 mph90%30.11 "Hg28 mi
9:00 AM69 °FLow clouds.13 mph97%30.11 "Hg28 mi
8:00 AM67 °FMild.15 mph100%30.10 "HgN/A
7:00 AM68 °FMild.12 mph97%30.08 "HgN/A
5:00 AM67 °FMild.15 mph99%30.05 "HgN/A
4:00 AM67 °FMild.13 mph100%30.04 "HgN/A
8:00 PM
Sun, Feb 7
69 °FMild.15 mph99%30.05 "HgN/A
7:00 PM70 °FMild.14 mph95%30.03 "HgN/A
6:00 PM71 °FMild.15 mph89%30.02 "HgN/A
5:00 PM71 °FMild.16 mph88%30.01 "HgN/A
4:00 PM74 °FMild.16 mph83%30.00 "HgN/A
3:00 PM75 °FMild.17 mph75%30.02 "HgN/A
2:00 PM75 °FMild.17 mph76%30.03 "HgN/A
1:00 PM73 °FMild.16 mph78%30.06 "HgN/A
12:00 PM74 °FScattered clouds.17 mph76%30.09 "Hg37 mi
Weather by CustomWeather, © 2016

See weather overviewHow to use our weather pages